EHI
0 3 7 9 9 8 7 7 6 4 4 2 1 0 0 1 2 3 2 1 0 0 0 0 0 0 0 0 0 0 0 0 0 0 0 0 0 0 0 0 0 0 0
1 2 6 9 11 9 7 7 7 5 4 3 1 1 1 1 2 2 2 1 0 0 0 0 0 0 0 0 0 0 0 0 0 0 0 0 0 0 0 0 0 0 0
2 2 5 9 11 10 8 7 6 5 4 3 2 1 1 1 1 1 1 0 0 0 0 0 0 1 1 0 0 0 0 0 0 0 0 0 0 0 0 0 0 0 0
2 4 6 9 10 10 8 6 5 4 4 3 1 1 1 0 0 0 0 0 0 0 0 0 0 1 1 1 1 0 0 0 0 0 0 0 0 0 0 0 0 0 0
2 4 7 9 10 7 6 5 4 3 3 2 1 0 0 0 0 0 0 0 0 0 0 0 0 1 1 1 1 0 0 0 0 0 0 0 0 0 0 0 0 0 0
3 4 7 10 10 7 4 3 2 3 3 1 0 0 0 0 0 0 0 0 0 0 0 0 0 0 0 1 1 0 0 0 0 0 0 0 0 0 0 0 0 0 0
4 4 6 10 11 8 5 3 1 2 2 1 1 1 0 0 0 0 0 0 0 0 0 0 0 0 0 0 0 0 0 0 0 0 0 0 0 0 0 0 0 0 0
3 4 5 7 8 9 7 3 1 1 1 1 2 2 2 1 0 0 0 0 1 1 0 0 0 0 0 0 0 0 0 0 0 0 0 0 0 0 0 0 0 0 0
2 2 3 4 5 7 8 4 1 0 1 1 2 3 3 2 0 0 0 1 1 1 0 0 0 0 0 0 0 0 0 0 0 0 0 0 0 0 0 0 0 0 0
2 1 1 2 3 5 5 3 1 0 0 1 1 2 2 1 0 0 0 1 1 1 0 0 0 0 0 0 0 0 0 0 0 0 0 0 0 0 0 0 0 0 0
2 1 0 1 3 3 3 1 0 0 0 0 0 0 0 0 0 0 0 0 0 0 0 0 0 0 0 0 0 0 0 0 0 0 0 0 0 0 0 0 0 0 0
3 2 1 1 2 2 2 1 0 0 0 0 0 0 0 0 0 0 0 0 0 0 0 0 0 0 0 0 0 0 0 0 0 0 0 0 0 0 0 0 0 0 0
2 2 1 1 1 1 2 2 1 0 0 0 0 0 0 0 0 0 0 0 0 0 0 0 0 0 0 0 0 0 0 0 0 0 0 0 0 0 0 0 0 0 0
1 1 1 0 0 1 2 2 1 0 0 0 0 0 0 0 0 0 0 0 0 0 0 0 0 0 0 0 0 0 0 0 0 0 0 0 0 0 0 0 0 0 0
0 0 0 0 0 1 1 1 0 0 0 0 0 0 0 0 0 0 0 0 0 0 0 0 0 0 0 0 0 0 0 0 0 0 0 0 0 0 0 0 1 0 0
0 0 0 0 0 0 0 0 0 0 0 0 0 0 0 0 0 0 0 0 0 0 0 0 0 0 0 0 0 0 0 0 0 0 0 0 0 0 0 0 0 0 0
0 0 0 0 0 0 0 0 0 0 0 0 0 0 0 0 0 0 0 0 0 0 0 0 0 0 0 0 0 0 0 0 0 0 0 0 0 0 0 0 0 0 0
0 0 0 0 0 0 0 0 0 0 0 0 0 0 0 0 0 0 0 0 0 0 0 0 0 0 0 0 0 0 0 0 0 0 0 0 0 0 0 0 0 0 0
0 0 0 0 0 0 0 0 0 0 0 0 0 0 0 0 0 0 0 0 0 0 0 0 0 0 0 0 0 0 0 0 0 0 0 0 0 0 0 0 0 0 0
0 0 0 0 0 0 0 0 0 0 0 0 0 0 0 0 0 0 0 0 0 0 0 0 0 0 0 0 0 0 0 0 0 0 0 0 0 0 0 0 0 0 0
0 0 0 0 0 0 0 0 0 0 0 0 0 0 0 0 0 0 0 0 0 0 0 0 0 0 0 0 0 0 0 0 0 0 0 0 0 0 0 0 0 0 0
0 0 0 0 0 0 0 0 0 0 0 0 0 0 0 0 0 0 0 0 0 0 0 0 0 0 0 0 0 0 0 0 0 0 0 0 0 0 0 0 0 0 0
0 0 0 0 0 0 0 0 0 0 0 0 0 0 0 0 0 0 0 0 0 0 0 0 0 0 0 0 0 0 0 0 0 0 0 0 0 0 0 0 0 0 0
0 0 0 0 0 0 0 0 0 0 0 0 0 0 0 0 0 0 0 0 0 0 0 0 0 0 0 0 0 0 0 0 0 0 0 0 0 0 0 0 0 0 0
0 0 0 0 0 0 0 0 0 0 0 0 0 0 0 0 0 0 0 0 0 0 0 0 0 0 0 0 0 0 0 0 0 0 0 0 0 0 0 0 0 0 0
0 0 0 0 0 0 0 0 0 0 0 0 0 0 0 0 0 0 0 0 0 0 0 0 0 0 0 0 0 0 0 0 0 0 0 0 0 0 0 0 0 0 0
Wind_Speed
3 4 10 10 10 9 9 9 9 8 8 8 8 9 9 9 9 9 9 9 9 9 9 10 10 11 11 11 12 12 13 13 13 13 12 11 12 13 13 13 11 8 14
6 5 10 10 10 9 9 8 8 8 7 7 8 8 8 8 8 8 8 8 9 9 9 10 10 10 10 11 11 11 11 12 12 11 10 9 10 12 13 12 11 8 13
7 6 8 9 10 9 9 8 8 7 7 7 7 7 7 7 7 7 7 8 8 8 9 10 10 10 10 10 9 10 10 11 10 9 8 5 6 11 12 12 11 12 13
8 6 6 9 10 10 9 8 7 7 7 7 6 6 6 6 7 7 7 7 8 8 8 9 10 9 9 9 8 9 9 9 9 7 4 3 4 9 11 11 11 11 12
6 5 6 9 9 9 9 8 8 7 7 6 6 6 6 6 6 6 7 7 8 8 8 9 9 9 8 8 8 8 8 8 8 6 4 3 3 8 10 11 11 11 11
6 5 6 9 9 8 8 7 7 7 6 6 6 6 6 6 6 6 7 7 8 8 8 8 8 8 8 8 8 8 8 8 6 4 3 3 2 7 9 9 10 10 10
6 4 5 8 8 8 7 7 6 7 6 6 6 6 6 5 6 6 6 7 7 8 8 8 7 7 7 7 7 7 7 7 5 3 3 2 3 7 9 9 9 9 10
6 5 4 7 7 7 6 6 5 5 6 5 5 5 5 5 5 5 5 6 7 7 7 7 6 6 6 6 7 7 7 6 5 3 2 1 4 7 9 9 9 9 9
6 4 3 3 4 6 6 5 5 5 4 4 4 5 5 4 4 5 5 6 6 6 6 6 6 5 5 5 6 6 6 6 3 2 2 1 3 6 8 8 8 8 9
5 4 3 2 2 2 3 4 4 4 3 3 4 4 5 4 4 5 4 5 5 5 5 5 5 5 5 5 5 5 6 5 2 2 1 1 4 6 8 8 8 8 8
3 2 2 2 2 2 2 3 3 3 3 3 3 4 4 2 2 2 3 4 4 5 4 4 4 4 4 4 4 5 4 2 2 1 1 2 4 6 7 8 8 8 8
2 1 2 2 2 2 2 2 1 1 1 1 1 2 2 2 2 2 2 3 3 4 3 4 4 4 3 2 2 3 2 2 2 1 1 2 3 5 6 7 7 7 7
3 2 1 2 2 2 1 2 1 1 1 1 2 2 2 2 1 1 1 1 1 2 2 2 2 2 2 1 1 2 2 2 1 1 1 2 2 4 5 6 7 7 7
2 2 1 1 1 1 1 2 2 1 1 1 1 2 2 2 1 1 1 1 1 1 1 1 1 2 2 2 2 2 2 2 1 1 1 2 2 3 5 6 6 6 6
2 1 2 1 1 1 1 1 1 2 2 2 1 2 2 2 2 1 1 1 1 1 2 1 1 2 2 2 2 2 2 2 2 2 1 3 3 2 3 5 6 6 6
2 2 2 2 2 1 1 1 1 1 2 2 1 2 2 2 2 2 1 1 1 1 2 2 2 2 2 2 2 2 2 2 2 2 2 2 4 4 2 3 5 5 5
2 2 2 2 1 1 1 1 1 1 1 1 1 2 2 3 3 2 2 1 1 1 2 2 2 2 2 2 2 2 2 2 2 2 2 2 2 3 3 2 3 4 5
1 1 1 1 1 1 1 1 1 1 1 1 1 1 2 3 3 3 2 2 2 2 2 2 2 3 2 2 2 2 2 2 2 2 2 1 1 1 2 3 2 3 4
2 2 1 1 1 1 1 0 1 1 1 1 1 1 1 2 3 3 2 1 2 2 2 2 2 2 3 3 2 2 2 2 1 2 2 2 2 2 2 3 3 3 2
1 1 1 1 1 1 1 1 1 1 0 0 1 1 2 2 3 3 2 2 2 2 2 2 3 2 3 3 3 3 3 2 2 2 2 2 2 2 2 2 2 2 3
2 2 1 1 1 1 0 0 0 1 1 1 1 1 2 2 3 3 2 2 2 3 3 4 3 4 2 2 3 2 3 3 3 2 2 2 2 2 3 3 2 2 2
1 1 1 1 0 1 1 1 1 1 1 1 1 1 2 2 2 3 3 3 3 2 3 3 4 3 2 2 3 3 1 2 3 3 2 2 2 2 2 2 2 2 2
1 1 1 1 1 1 1 1 1 1 1 1 1 1 1 2 2 2 3 3 3 3 3 4 4 4 3 2 2 3 3 2 1 2 2 1 1 1 1 1 2 2 2
1 1 1 1 1 1 1 1 1 1 1 2 1 1 2 2 3 3 3 3 3 3 3 4 4 3 5 3 1 0 2 3 3 0 1 1 1 1 1 1 1 1 1
1 0 1 1 2 2 1 1 2 1 1 1 1 1 1 2 2 3 3 3 3 3 3 3 3 4 3 4 3 2 1 1 2 3 2 1 1 1 1 1 0 1 1
2 1 2 2 2 2 2 1 2 2 2 1 1 1 1 1 1 3 3 3 3 3 4 4 3 4 4 4 3 3 3 3 2 2 2 1 1 2 2 1 1 1 1
Wind_Direction
171 177 150 144 138 131 124 118 111 105 103 101 100 97 93 93 91 92 91 93 96 95 94 94 95 93 90 88 86 85 84 83 81 78 77 79 83 86 85 82 79 77 84
158 166 147 143 141 137 130 121 113 108 106 105 106 104 98 96 93 93 94 96 97 97 95 93 96 96 93 90 88 88 87 86 83 76 70 72 82 88 89 87 85 87 88
138 146 146 142 141 137 132 126 120 114 111 107 108 107 104 100 98 95 96 98 100 98 95 93 94 95 92 91 90 91 90 88 83 75 68 61 80 90 91 91 91 90 91
134 134 137 141 140 136 132 128 125 121 115 112 110 110 108 103 102 98 99 101 102 100 98 94 91 91 90 88 90 95 94 88 82 76 67 57 75 94 95 95 94 93 92
125 126 136 136 137 136 134 130 128 128 124 118 115 112 111 106 102 100 100 102 103 103 102 98 93 89 87 85 86 94 92 85 82 73 66 61 71 97 98 99 97 96 95
123 126 136 133 133 131 130 132 132 129 128 124 123 122 116 111 107 104 103 104 103 106 107 103 98 94 88 85 83 88 87 79 78 69 67 71 81 101 100 102 103 105 103
127 125 134 137 135 134 133 128 130 132 131 130 128 128 123 119 116 112 110 113 112 111 111 107 103 99 93 88 84 81 79 77 78 75 71 76 102 109 105 104 108 108 108
133 128 131 136 137 138 137 135 131 133 136 135 137 135 129 127 127 122 119 121 121 117 115 113 110 104 97 93 86 77 74 75 77 80 71 81 120 117 111 107 106 109 111
121 121 121 130 135 139 139 136 134 131 134 135 132 135 133 133 134 131 131 129 125 122 118 117 116 111 105 97 86 76 70 70 71 77 81 79 118 124 117 112 108 107 109
107 116 120 119 119 121 134 134 132 132 126 127 124 118 119 124 133 137 132 131 124 123 122 118 116 114 107 100 86 73 63 65 59 65 64 98 120 129 125 120 115 112 109
102 110 119 117 125 131 141 137 135 140 128 115 120 123 113 101 107 128 136 134 125 119 120 121 114 110 101 91 81 71 62 58 64 61 65 88 120 131 126 125 121 116 114
138 128 118 131 150 154 153 131 130 129 116 104 98 111 111 115 117 116 116 128 123 113 111 110 102 95 90 81 69 70 68 60 66 55 59 77 119 135 130 129 127 122 119
175 161 150 145 155 153 155 151 142 121 108 110 110 112 109 103 98 98 100 92 98 104 99 90 81 72 84 90 79 73 72 76 63 37 38 65 114 144 141 137 135 132 131
166 187 191 166 138 142 165 170 153 141 135 134 136 129 119 115 112 121 120 120 108 112 111 99 94 81 89 96 102 89 76 76 69 47 30 49 85 149 154 146 139 137 144
168 211 204 179 163 159 145 172 152 160 159 159 146 136 130 131 136 135 133 128 131 120 124 123 111 100 96 91 96 99 85 75 69 58 32 44 57 80 138 144 142 142 145
200 216 212 186 173 153 151 165 161 168 163 152 150 158 146 140 139 138 138 133 139 135 133 130 126 119 112 101 90 91 92 85 74 60 48 42 47 53 86 147 157 150 145
198 198 193 181 164 150 152 165 152 156 150 156 165 165 155 149 148 143 144 149 159 142 124 112 105 98 100 93 85 82 87 78 77 62 50 45 36 37 47 90 151 158 159
168 172 183 155 130 134 148 170 151 148 146 166 167 161 163 155 150 148 146 165 162 140 133 131 122 108 94 91 84 65 64 70 72 73 62 54 48 33 23 47 82 127 152
173 160 148 132 136 144 147 151 149 142 157 168 160 152 165 157 152 151 156 166 154 139 135 143 125 123 118 107 91 69 53 57 61 72 61 56 60 57 41 39 50 70 102
159 138 124 94 103 97 80 57 62 92 136 163 173 183 165 162 158 154 150 153 145 139 135 131 127 112 119 120 95 64 43 36 41 51 52 55 59 57 51 50 45 49 59
53 61 69 68 60 102 61 88 143 245 242 237 219 202 183 162 157 155 150 146 142 150 160 147 129 122 110 117 92 60 30 34 45 39 36 51 51 45 46 52 57 56 53
57 38 39 26 355 274 257 234 229 232 229 232 226 204 184 166 164 165 159 163 158 149 153 149 137 132 139 139 122 115 56 5 6 17 22 49 47 47 48 44 54 65 61
34 6 327 318 326 314 318 29 29 30 26 13 302 251 219 187 175 165 169 170 171 163 171 172 162 153 159 176 157 143 148 191 271 342 0 25 40 47 33 25 44 43 56
313 324 340 329 339 331 334 170 168 186 224 239 241 244 239 211 196 183 171 171 178 173 176 184 177 168 161 168 179 122 146 152 153 186 327 343 358 12 353 359 30 19 48
339 28 359 5 348 341 325 261 218 231 247 272 257 222 236 229 210 197 181 175 180 180 183 180 177 174 171 170 170 154 116 99 130 152 208 277 329 316 307 300 333 323 304
17 41 27 16 347 337 324 304 259 238 225 222 234 219 237 243 232 214 193 187 189 190 191 187 183 184 181 176 172 164 161 162 169 159 180 212 261 293 305 289 280 267 292